This demonstration page uses our WeatherBlox Daily Observations layout. Learn more.

Left ArrowRight Arrow

39.92423, -83.80882

Hourly Observations for June 22, 2021

Temp ( °F °C ) Dew Point ( °F °C ) Humidity (%) Winds ( mph kmh ) Pressure ( in mb ) Visibility ( mi km ) Precip ( " mm )
12:56 am 00:56 Cloudy 62 16.7 62 16.7 100 100 NW 5 7 29.86 1011 10 16 N/A
1:56 am 01:56 Clear 60 15.6 60 15.6 100 100 NW 5 7 29.85 1011 10 16 N/A
2:56 am 02:56 Cloudy 61 16.1 59 15 93 93 NW 7 11 29.87 1011 10 16 N/A
3:56 am 03:56 Cloudy 59 15 55 12.8 87 87 NNW 12 19 29.87 1011 10 16 N/A
4:56 am 04:56 Cloudy 56 13.3 53 11.7 90 90 NNW 9 15 29.88 1012 10 16 N/A
5:56 am 05:56 Partly Cloudy 54 12.2 54 12.2 100 100 NNW 9 15 29.91 1013 10 16 N/A
6:56 am 06:56 Sunny 54 12.2 54 12.2 100 100 NNW 8 13 29.93 1013 10 16 N/A
7:56 am 07:56 Sunny 56 13.3 53 11.7 90 90 NNW 9 15 29.95 1014 10 16 N/A
8:56 am 08:56 Partly Cloudy 57 13.9 52 11.1 83 83 NNW 8 13 29.98 1015 10 16 N/A
9:07 am 09:07 Mostly Cloudy 57 14 52 11 82 82 NNW 12 19 29.99 1015 10 16 N/A
9:43 am 09:43 Mostly Cloudy 59 15 48 9 68 68 N 10 17 29.99 1016 10 16 N/A
9:56 am 09:56 Mostly Sunny 58 14.4 45 7.2 62 62 NNW 10 17 30.00 1016 10 16 N/A
10:56 am 10:56 Mostly Sunny 61 16.1 41 5 48 48 NNW 9 15 30.02 1017 10 16 N/A
11:56 am 11:56 Sunny 63 17.2 40 4.4 43 43 N 14 22 30.03 1017 10 16 N/A
12:56 pm 12:56 Sunny 64 17.8 39 3.9 40 40 NNW 15 24 30.03 1017 10 16 N/A
1:56 pm 13:56 Sunny 65 18.3 38 3.3 37 37 NW 13 20 30.02 1017 10 16 N/A
2:56 pm 14:56 Sunny 66 18.9 40 4.4 39 39 NW 13 20 30.01 1016 10 16 N/A
3:56 pm 15:56 Sunny 67 19.4 41 5 39 39 NW 13 20 30.01 1016 10 16 N/A
4:56 pm 16:56 Mostly Cloudy 67 19.4 41 5 39 39 N 9 15 30.02 1017 10 16 N/A
5:56 pm 17:56 Mostly Sunny 68 20 40 4.4 36 36 NW 10 17 30.02 1017 10 16 N/A
6:56 pm 18:56 Sunny 66 18.9 40 4.4 39 39 NW 9 15 30.03 1017 10 16 N/A
7:56 pm 19:56 Sunny 66 18.9 42 5.6 42 42 N N/A 30.04 1017 10 16 N/A
8:56 pm 20:56 Sunny 63 17.2 44 6.7 50 50 N N/A 30.05 1018 10 16 N/A
9:56 pm 21:56 Clear 59 15 48 8.9 67 67 S 5 7 30.06 1018 10 16 N/A
10:56 pm 22:56 Clear 59 15 46 7.8 62 62 S 5 7 30.09 1019 10 16 N/A
11:56 pm 23:56 Clear 58 14.4 45 7.2 62 62 S 5 7 30.09 1019 10 16 N/A

Powered by AerisWeather